CST,Max TemperatureF,Mean TemperatureF,Min TemperatureF,Max Dew PointF,MeanDew PointF,Min DewpointF,Max Humidity, Mean Humidity, Min Humidity, Max Sea Level PressureIn, Mean Sea Level PressureIn, Min Sea Level PressureIn, Max VisibilityMiles, Mean VisibilityMiles, Min VisibilityMiles, Max Wind SpeedMPH, Mean Wind SpeedMPH, Max Gust SpeedMPH,PrecipitationIn, CloudCover, Events, WindDirDegrees
2010-11-1,71,61,50,41,40,38,66,51,36,30.19,30.14,30.09,10,9,2,18,13,24,0.00,0,,52
2010-11-2,58,55,51,49,37,31,83,62,41,30.19,30.13,30.10,10,10,7,22,14,26,0.13,5,Rain,44
2010-11-3,62,56,49,50,44,34,89,68,46,30.11,30.03,29.95,10,9,4,15,7,29,0.05,5,Rain,26
2010-11-4,62,54,46,33,26,21,50,36,21,30.00,29.95,29.89,10,10,10,23,11,39,T,1,,324
2010-11-5,53,46,38,26,20,14,50,35,20,30.24,30.11,29.97,10,10,10,16,8,26,0.00,1,,325
2010-11-6,58,46,33,26,19,11,70,43,15,30.42,30.36,30.25,10,10,9,10,3,29,T,0,Snow,321
2010-11-7,66,48,30,30,26,21,78,49,19,30.45,30.36,30.21,10,10,10,16,6,23,0.00,0,,199
2010-11-8,73,55,36,38,33,30,76,49,22,30.19,30.09,30.01,10,10,9,21,7,25,0.00,0,,215
2010-11-9,74,57,39,45,39,35,85,57,29,30.06,30.01,29.97,10,10,10,15,6,21,0.00,0,,208
2010-11-10,78,61,44,53,46,39,83,61,38,30.17,30.08,30.02,10,10,9,18,4,29,0.00,1,,175
2010-11-11,78,62,46,49,43,39,93,60,26,30.31,30.26,30.18,10,8,2,12,2,,0.00,0,,95
2010-11-12,78,61,43,42,39,37,83,53,23,30.27,30.20,30.07,10,9,6,15,4,18,0.00,0,,163
2010-11-13,59,47,35,56,45,32,93,70,47,30.13,30.08,30.05,10,8,4,22,8,30,0.14,5,Rain,255
2010-11-14,56,44,32,36,32,29,92,64,35,30.17,30.08,30.00,10,10,10,13,1,22,0.00,0,,202
2010-11-15,57,45,33,38,33,28,89,62,35,29.97,29.88,29.76,10,10,10,13,6,23,0.00,1,,56
2010-11-16,48,45,42,43,40,37,96,81,66,29.93,29.75,29.65,10,8,3,15,7,23,0.64,5,Rain,281
2010-11-17,62,50,37,48,43,36,93,74,55,30.14,30.06,29.94,10,9,2,16,5,21,0.15,2,Rain,181
2010-11-18,52,49,45,48,42,38,93,78,63,30.35,30.27,30.14,10,7,2,13,6,20,0.02,8,Rain,26
2010-11-19,53,45,36,41,39,36,92,78,63,30.32,30.25,30.18,10,9,4,18,5,22,0.00,4,,177
2010-11-20,59,47,35,49,41,34,100,86,72,30.27,30.18,30.14,10,3,0,14,3,30,0.00,2,Fog,199
2010-11-21,66,55,44,59,52,42,93,86,78,30.15,30.11,30.04,10,6,2,21,10,26,0.00,6,,184
2010-11-22,73,68,62,63,59,55,84,76,68,30.06,29.98,29.90,10,10,4,30,17,37,0.17,7,Rain-Thunderstorm,194
2010-11-23,69,61,52,63,45,35,87,67,47,30.18,30.10,29.93,10,10,10,23,13,90,T,5,,40
2010-11-24,77,62,47,65,52,37,97,79,60,30.10,29.91,29.71,10,8,1,31,14,40,0.06,6,Rain,137
2010-11-25,71,54,36,64,49,22,89,75,61,30.14,29.81,29.69,10,6,1,32,16,41,1.26,7,Rain-Thunderstorm,302
2010-11-26,46,38,29,29,22,14,75,55,34,30.23,30.17,30.12,10,10,10,14,6,28,0.00,0,,275
2010-11-27,56,45,34,36,28,23,85,58,30,30.23,30.19,30.16,10,10,10,13,6,,0.00,0,,338
2010-11-28,58,45,31,34,31,27,89,63,36,30.22,30.12,30.01,10,10,10,15,6,17,0.00,0,,123
2010-11-29,57,50,43,54,48,34,100,78,56,30.00,29.80,29.69,10,5,1,16,7,36,1.72,7,Rain-Thunderstorm,155
2010-11-30,52,42,31,37,26,21,89,71,52,30.17,30.03,29.80,10,10,10,22,11,28,0.01,5,,281